CZ-6A DEB, 55189

Orbit data source: Space-Track

CZ-6A DEB, 55189 is space debris in SSO originally from a launch on Fri, 11 Nov 2022 UTC launched from the Taiyaun Space Center, China (TSC). Debris objects in space refer to the collection of defunct objects orbiting the Earth. Examples of debris include non-operational satellites, rocket bodies, and fragments generated from explosions, collisions, or faulty payload assembly.

Loading next visibility...
Identifier
55189, 2022-151VE
Orbit
SSO
Country
Flag of CNCN / PRC
Related business
Manufacturer
SAST
Mission
Spacecraft
Bus & Motor
Unknown
Mass
Unknown
Launch date (UTC)
2022-11-11 (3 years ago)
Launch vehicle
Unknown
Launch site
Taiyaun Space Center, China (TSC)
Object type
Payload
Rocket body
Debris
Shape & HBR
Unknown shape, 0.1 m
Radar Cross Section
Small (<0.1 m²)

Expand to show TLE details & history
Last TLE update: 1 day ago

TLE from 1 day ago
0 CZ-6A DEB
1 55189U 22151VE  25349.99759589  .00002474  00000-0  12166-2 0  9998
2 55189  98.8496 356.4664 0049164 133.7694 226.7565 14.17919885156665
Epoch: 2025-12-15T23:56Z
TLE epoch observation values (Epoch: 2025-12-15T23:56:32.284Z)
Latitude
-0.00007°
Longitude
-87.55624°
Altitude
859.687 km
Speed
7.41 km/s
True Right ascension
23h 45m 51s
True Declination
0° 00' 00"
Sunlit
Object was in daylight at epoch
Visualization orbit readout
Latitude
Unknown
Longitude
Unknown
Altitude
Unknown
Speed
Unknown
Apparent Right ascension
Unknown
Apparent Declination
Unknown
Sunlit
N/A
Visualization observer readout
Local Sidereal Time
23:46:33
Azimuth
Unknown
Elevation
Unknown
Doppler factor
Unknown
Orbital elements
Apogee altitude
865 km
Perigee altitude
794.128 km
Semi-major axis
7,207.701 km
Eccentricity
0.00492
Inclination
98.8496°
RAAN
356.4664°
Arg. of periapsis
133.7694°
True anomaly
226.34783°
Mean anomaly
226.7565°
Eccentric anomaly
226.55199°
Mean motion
3.54689 °/min
Orbital period
101.5 mins
BSTAR
0.0012166
Loading maneuver chart data...
Computing Atmospheric mass density...
Loading historical data...
Loading historical data...
Loading historical data...
Loading historical data...
Loading historical data...
Loading historical data...
Loading historical data...

Documentation

Showing up to 5 results
|